| time (UTC) | temp F | wind direction | speed MPH | gust MPH | rain 1hr in | rain 24hr in | rain mn in | humidity % | barometer mb |
| 20260503190005 | 83 | 224 | 5.0 | 15.0 | 0.00 | 0.00 | 0.00 | 33 | 1019.5 |
| 20260503185505 | 83 | 240 | 5.0 | 16.0 | 0.00 | 0.00 | 0.00 | 32 | 1019.7 |
| 20260503185005 | 82 | 201 | 6.0 | 13.0 | 0.00 | 0.00 | 0.00 | 36 | 1019.7 |
| 20260503184505 | 82 | 251 | 7.0 | 15.0 | 0.00 | 0.00 | 0.00 | 33 | 1019.7 |
| 20260503184005 | 83 | 229 | 8.0 | 13.0 | 0.00 | 0.00 | 0.00 | 34 | 1019.8 |
| 20260503183505 | 81 | 264 | 3.0 | 12.0 | 0.00 | 0.00 | 0.00 | 36 | 1019.9 |
| 20260503183004 | 81 | 266 | 4.0 | 17.0 | 0.00 | 0.00 | 0.00 | 35 | 1019.9 |
| 20260503182505 | 81 | 238 | 6.0 | 16.0 | 0.00 | 0.00 | 0.00 | 33 | 1020.2 |
| 20260503182006 | 81 | 247 | 5.0 | 16.0 | 0.00 | 0.00 | 0.00 | 35 | 1020.3 |
| 20260503180505 | 80 | 250 | 8.0 | 13.0 | 0.00 | 0.00 | 0.00 | 36 | 1020.6 |
| 20260503175005 | 80 | 261 | 8.0 | 17.0 | 0.00 | 0.00 | 0.00 | 36 | 1020.9 |
| 20260503174505 | 80 | 236 | 8.0 | 16.0 | 0.00 | 0.00 | 0.00 | 38 | 1021.0 |
| 20260503174005 | 80 | 253 | 6.0 | 15.0 | 0.00 | 0.00 | 0.00 | 39 | 1021.0 |
| 20260503173504 | 80 | 215 | 7.0 | 16.0 | 0.00 | 0.00 | 0.00 | 38 | 1021.1 |
| 20260503173005 | 80 | 286 | 4.0 | 13.0 | 0.00 | 0.00 | 0.00 | 40 | 1021.2 |
| 20260503172504 | 80 | 223 | 6.0 | 13.0 | 0.00 | 0.00 | 0.00 | 39 | 1021.2 |
| 20260503172005 | 80 | 221 | 5.0 | 13.0 | 0.00 | 0.00 | 0.00 | 40 | 1021.2 |
| 20260503171505 | 79 | 251 | 5.0 | 13.0 | 0.00 | 0.00 | 0.00 | 40 | 1021.4 |
| 20260503171004 | 79 | 225 | 2.0 | 13.0 | 0.00 | 0.00 | 0.00 | 42 | 1021.5 |
| 20260503170505 | 79 | 255 | 6.0 | 14.0 | 0.00 | 0.00 | 0.00 | 40 | 1021.6 |
| 20260503151005 | 73 | 250 | 6.0 | 13.0 | 0.00 | 0.00 | 0.00 | 47 | 1021.7 |
| 20260503150504 | 73 | 255 | 5.0 | 12.0 | 0.00 | 0.00 | 0.00 | 48 | 1021.8 |
| 20260503131005 | 64 | 249 | 3.0 | 12.0 | 0.00 | 0.00 | 0.00 | 62 | 1021.5 |
| 20260503130505 | 63 | 245 | 3.0 | 8.0 | 0.00 | 0.00 | 0.00 | 63 | 1021.4 |
| 20260503110504 | 57 | 265 | 1.0 | 3.0 | 0.00 | 0.00 | 0.00 | 71 | 1020.4 |
| 20260503090504 | 60 | 235 | 0.0 | 0.0 | 0.00 | 0.00 | 0.00 | 64 | 1020.4 |
| 20260503081004 | 61 | 218 | 2.0 | 3.0 | 0.00 | 0.00 | 0.00 | 61 | 1020.4 |
| 20260503080504 | 61 | 231 | 2.0 | 7.0 | 0.00 | 0.00 | 0.00 | 61 | 1020.4 |
| 20260503072507 | 61 | 209 | 0.0 | 1.0 | 0.00 | 0.00 | 0.00 | 61 | 1020.7 |
| 20260503071506 | 62 | 218 | 1.0 | 3.0 | 0.00 | 0.00 | 0.00 | 59 | 1020.7 |
| 20260503071006 | 62 | 165 | 1.0 | 3.0 | 0.00 | 0.00 | 0.00 | 58 | 1020.8 |
| 20260503070507 | 62 | 198 | 1.0 | 5.0 | 0.00 | 0.00 | 0.00 | 57 | 1020.8 |
| 20260503055007 | 63 | 191 | 0.0 | 3.0 | 0.00 | 0.00 | 0.00 | 56 | 1020.5 |
| 20260503054506 | 63 | 211 | 2.0 | 3.0 | 0.00 | 0.00 | 0.00 | 56 | 1020.5 |
| 20260503053507 | 63 | 175 | 1.0 | 3.0 | 0.00 | 0.00 | 0.00 | 56 | 1020.5 |
| 20260503053006 | 63 | 175 | 2.0 | 5.0 | 0.00 | 0.00 | 0.00 | 56 | 1020.5 |
| 20260503052507 | 63 | 175 | 2.0 | 3.0 | 0.00 | 0.00 | 0.00 | 56 | 1020.5 |
| 20260503051506 | 63 | 175 | 2.0 | 3.0 | 0.00 | 0.00 | 0.00 | 54 | 1020.4 |
| 20260503051006 | 63 | 175 | 1.0 | 5.0 | 0.00 | 0.00 | 0.00 | 54 | 1020.4 |
| 20260503050006 | 64 | 175 | 2.0 | 5.0 | 0.00 | 0.00 | 0.00 | 53 | 1020.3 |
| 20260503045506 | 64 | 175 | 1.0 | 3.0 | 0.00 | 0.00 | 0.00 | 52 | 1020.3 |
| 20260503045006 | 64 | 175 | 2.0 | 3.0 | 0.00 | 0.00 | 0.00 | 52 | 1020.3 |
| 20260503044506 | 65 | 175 | 2.0 | 5.0 | 0.00 | 0.00 | 0.00 | 52 | 1020.3 |
| 20260503044006 | 65 | 197 | 3.0 | 6.0 | 0.00 | 0.00 | 0.00 | 51 | 1020.3 |
| 20260503043506 | 65 | 177 | 3.0 | 7.0 | 0.00 | 0.00 | 0.00 | 51 | 1020.3 |
| 20260503043006 | 65 | 162 | 4.0 | 7.0 | 0.00 | 0.00 | 0.00 | 51 | 1020.3 |
| 20260503042506 | 65 | 173 | 3.0 | 6.0 | 0.00 | 0.00 | 0.00 | 51 | 1020.1 |
| 20260503042006 | 65 | 160 | 3.0 | 7.0 | 0.00 | 0.00 | 0.00 | 50 | 1020.3 |
| 20260503041506 | 65 | 174 | 3.0 | 6.0 | 0.00 | 0.00 | 0.00 | 50 | 1020.2 |
| 20260503041006 | 66 | 158 | 3.0 | 7.0 | 0.00 | 0.00 | 0.00 | 50 | 1020.3 |
| 20260503040506 | 66 | 179 | 3.0 | 6.0 | 0.00 | 0.00 | 0.00 | 50 | 1020.3 |
| 20260503040006 | 66 | 182 | 3.0 | 6.0 | 0.00 | 0.00 | 0.00 | 50 | 1020.2 |
| 20260503035506 | 66 | 188 | 3.0 | 7.0 | 0.00 | 0.00 | 0.00 | 49 | 1020.2 |
| 20260503034506 | 65 | 185 | 3.0 | 6.0 | 0.00 | 0.00 | 0.00 | 53 | 1020.2 |
| 20260503033506 | 64 | 173 | 2.0 | 6.0 | 0.00 | 0.00 | 0.00 | 57 | 1020.2 |
| 20260503033006 | 64 | 207 | 0.0 | 0.0 | 0.00 | 0.00 | 0.00 | 57 | 1020.1 |
| 20260503032506 | 64 | 207 | 0.0 | 0.0 | 0.00 | 0.00 | 0.00 | 57 | 1020.0 |
| 20260503032006 | 64 | 207 | 0.0 | 0.0 | 0.00 | 0.00 | 0.00 | 57 | 1020.0 |
| 20260503031506 | 64 | 207 | 0.0 | 0.0 | 0.00 | 0.00 | 0.00 | 56 | 1020.0 |
| 20260503031006 | 64 | 207 | 0.0 | 0.0 | 0.00 | 0.00 | 0.00 | 56 | 1020.0 |
| 20260503030506 | 64 | 207 | 0.0 | 0.0 | 0.00 | 0.00 | 0.00 | 55 | 1019.9 |
| 20260503030006 | 64 | 207 | 0.0 | 0.0 | 0.00 | 0.00 | 0.00 | 56 | 1019.9 |
| 20260503025506 | 64 | 207 | 0.0 | 0.0 | 0.00 | 0.00 | 0.00 | 56 | 1019.8 |
| 20260503025006 | 64 | 238 | 0.0 | 0.0 | 0.00 | 0.00 | 0.00 | 56 | 1019.8 |
| 20260503024506 | 65 | 238 | 0.0 | 0.0 | 0.00 | 0.00 | 0.00 | 55 | 1019.9 |
| 20260503024006 | 65 | 238 | 0.0 | 0.0 | 0.00 | 0.00 | 0.00 | 55 | 1019.8 |
| 20260503023506 | 65 | 238 | 0.0 | 0.0 | 0.00 | 0.00 | 0.00 | 54 | 1019.8 |
| 20260503023006 | 65 | 238 | 0.0 | 0.0 | 0.00 | 0.00 | 0.00 | 54 | 1019.7 |
| 20260503022506 | 66 | 238 | 0.0 | 0.0 | 0.00 | 0.00 | 0.00 | 53 | 1019.7 |
| 20260503022006 | 66 | 238 | 0.0 | 0.0 | 0.00 | 0.00 | 0.00 | 52 | 1019.7 |
| 20260503021506 | 66 | 238 | 0.0 | 0.0 | 0.00 | 0.00 | 0.00 | 51 | 1019.6 |
| 20260503021006 | 66 | 238 | 0.0 | 0.0 | 0.00 | 0.00 | 0.00 | 51 | 1019.6 |
| 20260503020505 | 66 | 238 | 0.0 | 0.0 | 0.00 | 0.00 | 0.00 | 51 | 1019.6 |
| 20260503015506 | 67 | 238 | 0.0 | 0.0 | 0.00 | 0.00 | 0.00 | 50 | 1019.5 |
| 20260503015006 | 67 | 238 | 0.0 | 0.0 | 0.00 | 0.00 | 0.00 | 50 | 1019.6 |
| 20260503014506 | 67 | 238 | 0.0 | 0.0 | 0.00 | 0.00 | 0.00 | 49 | 1019.5 |
| 20260503014006 | 68 | 238 | 0.0 | 0.0 | 0.00 | 0.00 | 0.00 | 48 | 1019.5 |
| 20260503013506 | 68 | 238 | 0.0 | 0.0 | 0.00 | 0.00 | 0.00 | 47 | 1019.5 |
| 20260503013006 | 69 | 238 | 0.0 | 0.0 | 0.00 | 0.00 | 0.00 | 46 | 1019.4 |
| 20260503012505 | 70 | 238 | 0.0 | 0.0 | 0.00 | 0.00 | 0.00 | 45 | 1019.3 |
| 20260503012006 | 70 | 238 | 0.0 | 0.0 | 0.00 | 0.00 | 0.00 | 44 | 1019.4 |
| 20260503011506 | 70 | 238 | 0.0 | 0.0 | 0.00 | 0.00 | 0.00 | 43 | 1019.4 |
| 20260503011006 | 71 | 238 | 0.0 | 3.0 | 0.00 | 0.00 | 0.00 | 43 | 1019.3 |
| 20260503010506 | 71 | 244 | 2.0 | 3.0 | 0.00 | 0.00 | 0.00 | 43 | 1019.3 |
| 20260503010006 | 72 | 249 | 1.0 | 5.0 | 0.00 | 0.00 | 0.00 | 41 | 1019.1 |
| 20260503005506 | 72 | 248 | 1.0 | 5.0 | 0.00 | 0.00 | 0.00 | 41 | 1019.3 |
| 20260503005005 | 72 | 252 | 2.0 | 6.0 | 0.00 | 0.00 | 0.00 | 41 | 1019.2 |
| 20260503004006 | 73 | 263 | 2.0 | 5.0 | 0.00 | 0.00 | 0.00 | 41 | 1019.2 |
| 20260503003505 | 73 | 273 | 1.0 | 5.0 | 0.00 | 0.00 | 0.00 | 40 | 1019.3 |
| 20260503002506 | 73 | 276 | 1.0 | 3.0 | 0.00 | 0.00 | 0.00 | 39 | 1019.1 |
| 20260503002005 | 74 | 276 | 0.0 | 6.0 | 0.00 | 0.00 | 0.00 | 39 | 1019.2 |
| 20260503001505 | 74 | 246 | 3.0 | 8.0 | 0.00 | 0.00 | 0.00 | 39 | 1019.3 |
| 20260503001006 | 74 | 244 | 1.0 | 6.0 | 0.00 | 0.00 | 0.00 | 38 | 1019.3 |
| 20260503000005 | 74 | 253 | 2.0 | 7.0 | 0.00 | 0.00 | 0.00 | 38 | 1019.3 |
| 20260502235506 | 74 | 283 | 2.0 | 9.0 | 0.00 | 0.00 | 0.00 | 38 | 1019.1 |
| 20260502235005 | 74 | 260 | 1.0 | 3.0 | 0.00 | 0.00 | 0.00 | 38 | 1019.2 |
| 20260502234006 | 75 | 279 | 3.0 | 9.0 | 0.00 | 0.00 | 0.00 | 37 | 1019.2 |
| 20260502233506 | 75 | 279 | 3.0 | 10.0 | 0.00 | 0.00 | 0.00 | 37 | 1019.2 |
| 20260502233006 | 75 | 289 | 5.0 | 12.0 | 0.00 | 0.00 | 0.00 | 37 | 1019.4 |
| 20260502232505 | 75 | 292 | 1.0 | 6.0 | 0.00 | 0.00 | 0.00 | 37 | 1019.4 |
| 20260502231506 | 75 | 278 | 4.0 | 10.0 | 0.00 | 0.00 | 0.00 | 36 | 1019.5 |
| 20260502231005 | 75 | 276 | 2.0 | 8.0 | 0.00 | 0.00 | 0.00 | 37 | 1019.5 |
| 20260502230506 | 75 | 299 | 2.0 | 9.0 | 0.00 | 0.00 | 0.00 | 35 | 1019.5 |
| 20260502230006 | 75 | 217 | 1.0 | 7.0 | 0.00 | 0.00 | 0.00 | 35 | 1019.5 |
| 20260502225505 | 76 | 284 | 2.0 | 10.0 | 0.00 | 0.00 | 0.00 | 36 | 1019.5 |
| 20260502225006 | 76 | 268 | 5.0 | 8.0 | 0.00 | 0.00 | 0.00 | 35 | 1019.5 |
| 20260502224506 | 76 | 275 | 4.0 | 9.0 | 0.00 | 0.00 | 0.00 | 35 | 1019.6 |
| 20260502224005 | 76 | 324 | 3.0 | 8.0 | 0.00 | 0.00 | 0.00 | 35 | 1019.6 |
| 20260502223506 | 76 | 274 | 3.0 | 7.0 | 0.00 | 0.00 | 0.00 | 35 | 1019.5 |
| 20260502222505 | 76 | 263 | 2.0 | 8.0 | 0.00 | 0.00 | 0.00 | 34 | 1019.7 |
| 20260502221506 | 75 | 286 | 2.0 | 5.0 | 0.00 | 0.01 | 0.00 | 33 | 1019.8 |
| 20260502221005 | 76 | 2 | 6.0 | 10.0 | 0.00 | 0.01 | 0.00 | 32 | 1019.7 |
| 20260502220005 | 76 | 278 | 2.0 | 13.0 | 0.00 | 0.01 | 0.00 | 34 | 1019.6 |
| 20260502215506 | 76 | 153 | 1.0 | 7.0 | 0.00 | 0.01 | 0.00 | 33 | 1019.7 |
| 20260502214505 | 77 | 224 | 3.0 | 7.0 | 0.00 | 0.01 | 0.00 | 34 | 1019.9 |
| 20260502214006 | 76 | 310 | 0.0 | 5.0 | 0.00 | 0.01 | 0.00 | 33 | 1020.0 |
| 20260502213005 | 77 | 341 | 4.0 | 14.0 | 0.00 | 0.01 | 0.00 | 32 | 1020.0 |
| 20260502211505 | 77 | 302 | 5.0 | 12.0 | 0.00 | 0.01 | 0.00 | 33 | 1020.2 |
| 20260502211006 | 77 | 320 | 3.0 | 13.0 | 0.00 | 0.01 | 0.00 | 31 | 1020.3 |
| 20260502210505 | 76 | 356 | 4.0 | 13.0 | 0.00 | 0.01 | 0.00 | 33 | 1020.4 |
| 20260502210005 | 76 | 36 | 2.0 | 6.0 | 0.00 | 0.01 | 0.00 | 31 | 1020.5 |
| 20260502205505 | 76 | 6 | 3.0 | 8.0 | 0.00 | 0.01 | 0.00 | 31 | 1020.4 |
| 20260502205005 | 77 | 355 | 5.0 | 10.0 | 0.00 | 0.01 | 0.00 | 30 | 1020.5 |
| 20260502204005 | 76 | 258 | 5.0 | 12.0 | 0.00 | 0.01 | 0.00 | 33 | 1020.6 |
| 20260502203506 | 75 | 24 | 2.0 | 9.0 | 0.00 | 0.01 | 0.00 | 33 | 1020.6 |
| 20260502203005 | 77 | 355 | 4.0 | 9.0 | 0.00 | 0.01 | 0.00 | 32 | 1020.8 |
| 20260502202505 | 77 | 4 | 3.0 | 12.0 | 0.00 | 0.01 | 0.00 | 32 | 1020.8 |
| 20260502202005 | 76 | 12 | 2.0 | 10.0 | 0.00 | 0.01 | 0.00 | 33 | 1020.8 |
| 20260502201505 | 76 | 0 | 3.0 | 9.0 | 0.00 | 0.01 | 0.00 | 32 | 1020.8 |
| 20260502201005 | 76 | 300 | 2.0 | 7.0 | 0.00 | 0.01 | 0.00 | 32 | 1020.9 |
| 20260502200005 | 77 | 324 | 4.0 | 8.0 | 0.00 | 0.01 | 0.00 | 32 | 1021.0 |
| 20260502195505 | 76 | 92 | 3.0 | 7.0 | 0.00 | 0.01 | 0.00 | 34 | 1021.0 |
| 20260502195005 | 76 | 358 | 5.0 | 10.0 | 0.00 | 0.01 | 0.00 | 34 | 1021.0 |
| 20260502194505 | 75 | 258 | 3.0 | 7.0 | 0.00 | 0.01 | 0.00 | 34 | 1021.1 |
| 20260502194005 | 75 | 248 | 5.0 | 9.0 | 0.00 | 0.01 | 0.00 | 33 | 1021.2 |
| 20260502193505 | 75 | 70 | 3.0 | 6.0 | 0.00 | 0.01 | 0.00 | 33 | 1021.3 |
| 20260502193005 | 75 | 54 | 4.0 | 10.0 | 0.00 | 0.01 | 0.00 | 34 | 1021.3 |
| 20260502192505 | 75 | 263 | 2.0 | 8.0 | 0.00 | 0.01 | 0.00 | 39 | 1021.3 |
| 20260502192005 | 75 | 259 | 1.0 | 9.0 | 0.00 | 0.01 | 0.00 | 34 | 1021.3 |
| 20260502191505 | 75 | 356 | 3.0 | 7.0 | 0.00 | 0.01 | 0.00 | 34 | 1021.3 |
| 20260502191005 | 75 | 60 | 3.0 | 12.0 | 0.00 | 0.01 | 0.00 | 34 | 1021.4 |
| 20260502190505 | 74 | 93 | 5.0 | 12.0 | 0.00 | 0.01 | 0.00 | 36 | 1021.4 |